STARLINK-4768, 53806

Orbit data source: Space-Track

STARLINK-4768, 53806 is a payload satellite owned by SpaceX/Seattle (US) in LEO that was launched on Sun, 11 Sep 2022 UTC via an FALCON 9 launch vehicle from the Air Force Eastern Test Range (AFETR). Payload-class satellites include a variety of spacecraft equipped with specific instruments for various scientific and technological missions. These include communications satellites like Starlink; space stations such as the ISS; scientific satellites like the Hubble; Earth observation satellites from companies like Planet Labs, Umbra, and HawkEye 360; GPS; miniature CubeSats for education and research; and military/defense satellites.

Loading next visibility...
Identifier
53806, 2022-111AK
Orbit
LEO
Country
Flag of USUS
Related business
Manufacturer
SpaceX/Seattle
Mission
Operational spacecraft
Bus & Motor
STARLINK, Unknown motor
Mass
305 kg wet, ~290 kg dry
Launch date (UTC)
2022-09-11 (3 years ago)
Launch vehicle
FALCON 9
Launch site
Air Force Eastern Test Range (AFETR)
Object type
Payload
Rocket body
Debris
Shape & HBR
Unknown shape, 10.1 m
Radar Cross Section
Large (>1 m²)

Expand to show TLE details & history
Last TLE update: 16 hours ago

TLE from 16 hours ago
0 STARLINK-4768
1 53806U 22111AK  25348.93382502  .00000611  00000-0  56475-4 0  9992
2 53806  53.2189 269.4488 0001400  94.2732 265.8421 15.08832971181232
Epoch: 2025-12-14T22:24Z
TLE epoch observation values (Epoch: 2025-12-14T22:24:42.481Z)
Latitude
0.00003°
Longitude
-150.56781°
Altitude
540.733 km
Speed
7.593 km/s
True Right ascension
17h 57m 47s
True Declination
0° 00' 00"
Sunlit
Object was in daylight at epoch
Visualization orbit readout
Latitude
Unknown
Longitude
Unknown
Altitude
Unknown
Speed
Unknown
Apparent Right ascension
Unknown
Apparent Declination
Unknown
Sunlit
N/A
Visualization observer readout
Local Sidereal Time
13:26:13
Azimuth
Unknown
Elevation
Unknown
Doppler factor
Unknown
Orbital elements
Apogee altitude
540.978 km
Perigee altitude
539.041 km
Semi-major axis
6,918.147 km
Eccentricity
0.00014
Inclination
53.2189°
RAAN
269.4488°
Arg. of periapsis
94.2732°
True anomaly
265.8261°
Mean anomaly
265.8421°
Eccentric anomaly
265.8341°
Mean motion
3.77189 °/min
Orbital period
95.44 mins
BSTAR
0.000056475
Loading maneuver chart data...
Computing Atmospheric mass density...
Loading historical data...
Loading historical data...
Loading historical data...
Loading historical data...
Loading historical data...
Loading historical data...
Loading historical data...

Documentation

Showing up to 5 results
|